Theta_e
297 296 296 296 296 296 297 298 299 302 305 307 310 315 320 320 320 319 319 320 320 320 320 319 319 319 319 318 319 319 318 315 300 293 293 292 292 292 292 293 293 294 294
296 296 296 295 295 295 298 299 300 303 305 308 311 313 319 320 320 320 320 321 320 319 319 319 319 319 319 319 318 317 316 313 308 293 290 291 291 291 292 293 293 294 293
296 295 295 295 295 296 297 299 302 304 307 309 311 313 318 321 321 321 321 321 321 320 320 320 319 319 318 317 316 316 314 311 309 301 291 291 290 290 291 292 292 292 292
297 296 295 295 295 296 298 300 303 305 307 309 311 312 315 319 320 320 320 319 319 318 317 316 316 315 315 314 313 314 312 310 306 301 293 290 290 289 290 290 291 292 292
296 296 295 294 295 297 299 301 303 306 306 307 308 310 313 316 316 317 317 316 316 316 315 314 314 313 314 313 313 312 310 307 303 298 292 291 289 288 288 290 291 292 292
296 296 296 295 295 296 299 301 303 305 307 308 308 309 311 311 312 315 315 314 312 312 311 310 311 311 311 311 311 309 308 308 304 299 294 292 292 292 291 290 291 290 290
296 296 296 295 296 296 298 301 303 304 306 307 307 309 309 308 310 311 311 310 309 308 308 308 308 308 308 309 307 308 307 306 304 304 302 299 297 300 297 291 291 291 289
296 296 296 296 297 297 299 299 300 301 303 304 307 307 307 305 307 308 310 309 308 306 305 305 305 305 304 304 305 304 304 303 302 302 303 302 302 302 301 297 293 291 290
296 297 297 297 297 298 299 298 299 299 300 300 300 302 303 303 305 305 308 307 305 305 303 304 304 303 302 301 299 298 296 296 295 298 301 301 300 300 299 295 291 290 288
296 296 297 297 297 297 298 299 298 298 298 299 299 299 299 301 302 303 303 304 304 303 301 301 301 300 298 297 296 295 293 292 291 291 291 297 296 294 297 295 295 290 289
296 296 296 296 297 297 297 298 298 300 300 300 299 299 301 300 301 300 300 300 299 298 296 295 293 292 291 290 290 290 290 290 290 289 289 290 291 291 293 291 291 292 290
296 295 294 295 296 296 297 297 298 299 299 299 299 299 298 298 299 298 297 297 296 296 295 293 292 291 290 290 289 289 288 288 288 288 288 288 288 289 289 289 289 289 289
295 295 293 292 293 295 296 296 296 296 297 296 297 297 297 297 297 296 295 294 294 295 295 293 291 290 290 290 289 289 288 288 287 286 286 286 286 287 286 286 287 287 288
295 295 295 293 291 290 292 295 295 295 295 295 295 295 295 294 294 294 293 293 293 292 291 291 290 290 290 289 288 288 287 287 287 286 286 285 285 285 285 285 285 286 286
294 294 295 295 293 292 291 290 290 289 290 290 290 291 291 291 292 293 294 293 292 292 291 290 289 289 289 288 288 287 287 286 286 285 285 284 284 284 284 284 284 284 283
294 294 294 294 294 293 293 292 292 291 290 289 289 289 289 288 288 288 288 288 288 289 289 289 288 288 287 287 287 287 287 287 286 285 285 284 284 283 283 283 283 283 283
292 293 293 293 292 292 292 292 291 290 289 289 289 289 288 288 288 287 287 287 287 288 287 287 286 285 285 285 285 285 285 285 285 284 284 284 284 283 283 282 282 281 281
291 290 291 291 291 291 290 290 289 289 289 288 288 288 288 288 288 289 288 287 287 287 287 287 286 286 286 285 285 285 285 285 284 284 284 284 283 282 282 281 281 281 280
291 291 290 290 290 290 289 290 287 287 287 288 289 290 290 290 290 289 288 288 288 287 287 287 287 287 286 286 286 285 285 285 284 284 283 283 283 282 282 281 281 281 281
290 290 290 290 289 289 289 288 288 288 287 288 290 291 292 292 290 288 287 287 287 287 287 286 286 286 286 285 285 285 284 284 284 284 283 283 282 281 281 281 280 280 280
292 291 289 289 289 289 288 288 287 287 289 289 288 289 288 288 287 286 286 286 285 285 285 285 285 284 284 284 284 284 283 283 283 283 283 283 282 282 281 281 281 281 280
291 291 290 290 290 289 289 288 289 289 288 287 286 286 286 285 284 283 283 283 283 283 283 283 283 282 282 282 282 282 282 282 282 282 282 282 282 282 282 281 281 281 281
291 290 289 289 289 289 289 289 288 286 285 284 283 282 282 281 280 280 280 280 280 280 280 280 280 279 279 279 279 279 279 279 280 280 281 281 281 282 281 281 281 280 280
288 288 288 288 288 287 286 284 283 283 281 280 279 278 277 277 277 277 277 277 277 277 277 277 277 277 277 277 277 277 277 277 277 278 278 279 279 280 281 281 280 280 280
288 287 286 285 283 281 280 279 278 277 276 276 275 275 275 276 276 276 276 276 276 276 275 275 275 275 275 275 275 275 274 275 275 275 276 276 276 276 276 277 279 280 280
284 284 282 281 279 277 276 275 274 274 274 274 274 274 274 274 274 274 274 274 274 274 273 273 273 273 273 272 272 272 273 273 271 271 272 272 273 273 273 274 274 275 276
Wind_Speed
4 5 6 6 6 6 8 8 10 11 12 14 14 12 22 25 25 22 19 17 19 18 17 17 17 18 15 14 11 8 8 11 9 4 9 12 13 12 12 11 12 10 9
4 4 6 7 6 6 8 9 11 10 12 15 14 14 21 21 23 20 17 15 17 16 17 16 17 17 17 13 10 9 12 10 8 11 12 15 13 14 13 13 13 12 10
4 5 5 6 6 7 7 9 10 12 13 13 14 15 22 22 20 18 16 15 15 15 16 16 17 15 14 12 9 11 10 8 8 14 12 15 15 17 16 14 12 12 11
2 5 7 7 6 7 9 11 12 12 13 14 14 15 20 20 22 20 17 16 18 17 16 16 13 11 11 12 11 9 9 9 9 18 10 16 16 20 16 14 13 14 13
0 4 8 7 7 8 10 12 13 14 14 16 16 17 18 18 17 17 19 21 20 18 15 13 11 8 7 7 9 11 12 12 14 14 11 10 13 15 16 16 13 13 11
2 3 7 7 8 9 13 14 16 17 17 17 20 24 23 19 11 12 17 18 18 17 16 14 11 10 10 9 8 9 7 7 12 11 10 13 18 21 20 18 15 12 5
5 3 6 8 9 10 11 15 18 19 19 20 21 22 23 21 17 16 16 18 18 17 17 15 14 11 10 10 10 9 7 6 7 7 9 13 15 18 20 22 23 24 9
8 6 5 7 9 10 10 13 15 16 18 19 19 19 20 20 17 18 17 18 18 17 14 13 10 10 8 8 7 6 7 9 10 10 10 9 11 10 17 24 26 25 14
10 8 6 6 8 9 10 11 11 11 13 16 16 16 17 17 14 15 13 14 14 13 12 10 7 6 5 4 5 6 7 6 6 9 13 13 12 14 16 23 24 25 10
13 10 8 6 6 8 8 8 8 9 11 11 12 12 12 12 11 10 8 8 10 10 9 7 5 4 2 4 5 7 8 7 6 6 7 12 14 14 15 21 24 26 12
13 12 10 9 7 6 7 7 8 8 8 7 7 8 8 7 6 7 5 5 4 3 3 1 1 1 2 3 4 5 6 6 6 6 7 9 12 15 18 22 24 26 25
15 13 11 9 8 7 6 6 6 5 5 5 4 5 4 3 2 3 4 2 2 2 2 3 3 3 3 4 4 5 6 6 6 6 7 8 11 15 16 20 24 24 24
17 14 13 12 10 8 7 6 5 4 4 4 3 2 2 0 2 3 3 3 2 1 2 3 5 6 5 5 6 7 6 6 6 7 8 8 9 11 13 16 20 22 23
17 16 14 12 11 10 8 7 5 4 3 2 2 1 2 2 2 2 3 3 3 2 4 5 7 7 8 7 8 8 8 8 8 9 9 9 9 10 11 14 17 20 22
17 16 15 13 11 10 8 6 5 4 4 4 3 4 4 3 3 3 4 5 6 7 7 8 8 9 9 9 10 10 10 10 10 10 10 10 11 12 13 14 16 16 17
19 18 17 15 14 12 10 9 8 7 6 6 6 5 5 5 5 5 6 6 7 9 9 10 10 10 11 11 11 11 13 13 12 11 12 13 14 14 15 15 16 19 21
19 17 15 15 14 13 12 11 9 6 4 4 4 5 7 7 8 8 7 5 5 8 9 9 9 10 10 11 12 13 15 14 14 15 15 14 15 16 18 19 19 21 23
18 15 14 14 14 13 12 10 8 6 4 2 2 3 4 6 6 6 6 6 7 9 12 13 14 15 15 15 14 15 15 14 15 16 17 18 18 17 19 21 20 23 25
18 17 14 12 10 9 10 9 8 6 5 3 1 0 2 5 5 4 4 7 8 10 11 13 13 14 15 17 18 18 18 17 17 17 18 19 20 21 22 22 23 24 23
15 14 13 11 10 9 9 8 7 6 3 2 4 5 5 5 5 6 5 4 5 8 10 11 12 12 13 14 15 15 16 16 16 16 17 18 19 20 21 21 20 20 22
10 10 11 10 9 7 6 5 6 7 9 8 8 9 7 7 9 10 10 10 9 9 9 10 11 12 13 14 15 15 14 15 16 17 17 18 18 20 20 22 22 22 23
9 12 13 12 12 13 12 11 11 12 13 13 13 13 11 13 14 14 15 14 13 12 12 11 12 13 14 15 15 15 16 18 18 18 17 17 17 19 20 20 22 22 22
12 15 15 17 18 20 18 16 15 16 18 17 16 16 17 18 18 19 18 17 17 17 17 17 18 18 18 18 18 18 19 19 18 17 20 21 20 20 20 20 21 21 20
16 18 21 20 21 22 22 21 21 20 21 22 21 22 22 22 22 22 21 20 20 20 20 21 22 22 21 22 22 22 21 20 20 20 20 19 20 22 22 22 22 22 23
19 20 21 21 22 23 24 23 24 23 25 24 24 24 23 23 22 22 21 20 20 21 23 24 24 24 25 25 25 25 26 24 26 24 21 20 20 19 19 19 20 22 22
21 21 23 23 24 25 25 26 26 26 27 26 25 25 24 25 24 23 22 23 24 24 24 25 25 26 27 27 27 27 27 27 30 29 27 25 24 22 22 21 20 20 20
Wind_Direction
5 359 1 26 44 13 38 26 22 16 8 12 29 73 147 173 173 171 174 183 198 202 196 190 196 199 190 176 179 189 187 168 126 144 162 177 170 170 168 162 154 140 127
356 16 15 29 42 49 42 35 34 27 29 35 44 69 139 149 159 167 168 176 176 174 179 182 181 184 177 174 186 192 191 177 150 144 157 166 181 177 174 175 172 158 142
353 32 58 40 43 52 56 53 52 52 52 52 61 76 103 130 138 141 152 164 179 183 184 184 164 177 179 176 176 168 174 181 172 165 148 175 175 182 179 186 175 165 160
341 24 61 65 56 62 60 62 56 57 68 66 71 80 95 117 126 134 138 143 151 151 155 152 150 161 163 158 160 171 173 168 164 156 150 169 177 187 194 187 185 181 171
331 35 61 69 78 83 85 76 75 74 75 78 84 98 101 105 113 134 138 138 133 131 129 132 132 142 152 159 164 164 173 161 158 162 151 168 182 182 198 196 195 184 183
146 60 71 76 85 91 93 94 90 91 91 90 86 87 91 88 103 127 131 133 131 127 122 115 122 130 136 141 140 152 169 177 178 179 176 185 196 199 199 195 188 173 216
159 112 76 86 85 89 93 95 92 96 100 97 99 97 96 97 99 105 116 119 116 116 111 116 120 126 130 142 157 166 179 189 216 221 218 209 207 209 206 198 196 193 202
164 149 108 91 90 91 93 92 93 97 99 100 100 101 104 102 104 108 112 114 116 114 117 114 122 125 137 146 146 163 183 204 217 219 231 233 232 231 227 219 208 202 213
175 164 145 117 105 101 97 91 86 85 89 89 93 96 99 100 104 102 109 117 116 119 116 118 115 133 145 155 170 184 202 206 221 229 227 223 227 226 221 206 197 194 216
178 170 161 147 125 116 114 107 93 93 88 87 85 84 86 88 96 103 107 121 124 124 123 128 155 165 190 213 222 228 225 221 231 232 222 225 224 216 211 216 209 191 192
176 174 173 166 157 143 129 119 114 110 105 95 83 79 79 71 88 101 97 77 75 89 102 130 85 335 293 255 252 268 271 255 243 233 217 211 208 206 206 210 213 218 209
182 180 179 179 172 164 153 138 138 134 125 116 109 105 92 81 44 28 30 45 43 28 0 328 304 283 274 272 276 276 274 277 265 250 234 218 213 215 214 215 216 220 223
185 186 182 182 189 192 191 182 172 163 148 137 133 128 130 7 341 2 357 1 351 302 290 291 283 278 286 293 285 285 289 268 258 259 260 253 246 241 232 228 223 225 230
188 190 194 195 195 199 204 209 213 215 215 213 218 235 260 275 264 263 271 280 290 283 281 273 264 266 271 274 276 282 276 271 265 258 254 254 253 245 237 234 234 234 242
195 196 199 205 209 211 213 222 236 246 251 264 266 257 255 246 249 257 256 259 265 266 265 265 267 273 276 274 273 274 275 279 277 272 263 256 248 243 244 243 243 248 247
198 200 203 206 209 217 225 230 242 252 258 265 272 281 286 285 288 282 281 278 272 268 261 266 270 273 281 287 286 282 278 280 279 276 271 263 257 254 251 247 244 243 247
208 206 209 211 212 215 223 231 238 256 269 281 293 285 278 278 277 275 271 266 263 261 263 278 282 288 293 295 296 294 292 295 290 280 277 274 272 266 259 253 250 248 250
220 219 214 214 215 217 224 233 228 233 229 211 260 279 298 300 297 291 269 245 249 243 270 288 299 305 307 305 309 310 310 305 290 281 277 277 276 275 272 265 261 258 259
223 225 224 224 222 222 221 224 253 241 231 228 158 144 346 356 348 318 269 267 278 281 289 295 305 311 311 311 315 315 312 308 304 296 290 285 282 278 272 270 275 275 272
217 223 219 215 221 223 223 214 203 177 164 100 70 53 37 19 31 26 22 348 321 315 318 322 326 328 326 328 329 327 322 317 311 305 299 294 289 280 269 270 268 265 267
200 201 197 189 189 190 194 180 151 130 109 94 77 65 60 65 55 47 44 37 27 13 360 353 350 352 352 351 347 343 337 331 330 325 315 307 300 289 277 270 266 266 265
178 174 168 161 149 144 137 136 131 120 110 102 89 79 77 78 77 71 65 59 54 50 43 38 34 26 18 12 7 2 357 352 348 342 333 324 315 305 298 286 273 268 265
156 150 143 135 134 131 127 125 121 115 110 106 102 96 89 85 82 76 72 68 63 59 55 51 46 41 38 33 27 22 18 9 358 350 340 331 326 320 313 305 297 284 274
130 128 127 128 128 125 126 123 119 116 111 107 103 98 93 88 83 79 75 70 65 60 56 52 49 45 39 35 31 29 27 19 9 0 357 353 347 330 319 313 306 299 291
128 128 126 125 121 118 118 114 110 110 105 103 100 97 93 90 86 82 79 74 71 67 65 62 59 57 52 47 43 36 28 25 24 19 13 7 1 356 348 347 332 310 299
127 126 125 126 121 119 116 110 107 107 105 104 101 97 94 90 87 84 82 83 81 78 74 71 63 55 50 43 38 32 35 24 23 23 21 17 12 7 2 358 351 346 337